Погода в Балтае

Россия / Саратовская область     52°28′04″N   46°37′35″E
темп.,
°C
ветер,
м/с
пор.,
м/с
влажн.,
%
обл.,
%
осадки,
мм/ч
давл.,
гПа
погр.,
м
24 сентября, пт
пт2401:00+9вюв4993100 0.1 1013545
04:00+9в2496100 0.1 1012206
07:00+10зюз228797 0.0 101283
10:00+11сз1179100 0.0 1012547
13:00+13ююв3473100 0.0 1012769
16:00+11юв3492100 1.6 1012334
19:00+10юв5996100 4.9 1012569
22:00+9всв3786100 5.8 1011277
25 сентября, сб
сб2501:00+8в2495100 1.1 1010191
04:00+9ссв1292100 1.2 1009124
07:00+9ссз249195 0.0 1009185
10:00+11сз347889 0.0 1010498
13:00+11ссз3375100 0.0 1010502
16:00+13сз3463100 0.0 10101041
19:00+11ссз2276100 0.0 101120
22:00+9ссз1184100 0.0 101110
26 сентября, вс
вс2601:00+8сз228793 0.0 101014
04:00+8сз2288100 0.0 101011
07:00+7с228893 0.0 101014
10:00+11ююз1170100 0.0 1009207
13:00+10ю2375100 0.0 1009143
16:00+13ююв2362100 0.2 1008771
19:00+11с1184100 0.9 100715
22:00+10вюв2285100 1.8 100760
27 сентября, пн
пн2701:00+9в2591100 1.4 1007237
04:00+9ссв3587100 1.9 1008146
07:00+8ссв4988100 0.2 1009267
10:00+11ссв687488 0.2 1010641
13:00+13ссв6762100 0.0 10111191
16:00+11ссв7973100 0.1 10131036
19:00+10св6980100 0.1 1015800
22:00+8св5887100 0.7 1017685
28 сентября, вт
вт2801:00+8ссв4787100 0.1 1019501
04:00+6ссв498853 0.1 1020331
07:00+4ссв498482 0.0 1022253
10:00+7св566045 0.0 1023614
13:00+10св444882 0.0 10241135
16:00+11ссв45445 0.0 10241364
19:00+7ссв37545 0.0 1025138
22:00+5ссв24615 0.0 102676